TimeMST,TemperatureF,Dew PointF,Humidity,Sea Level PressureIn,VisibilityMPH,Wind Direction,Wind SpeedMPH,Gust SpeedMPH,PrecipitationIn,Events,Conditions,WindDirDegrees,DateUTC
12:53 AM,26.1,15.1,63,30.04,10.0,West,4.6,-,N/A,,Clear,260,2012-12-22 07:53:00
1:53 AM,25.0,14.0,63,30.04,10.0,West,5.8,-,N/A,,Clear,260,2012-12-22 08:53:00
2:53 AM,21.0,12.9,71,30.09,10.0,West,5.8,-,N/A,,Clear,280,2012-12-22 09:53:00
3:53 AM,19.9,12.0,71,30.09,10.0,West,6.9,-,N/A,,Clear,270,2012-12-22 10:53:00
4:53 AM,19.4,10.4,68,29.93,10.0,WNW,3.5,-,N/A,,Partly Cloudy,300,2012-12-22 11:53:00
5:53 AM,17.1,10.9,77,30.12,10.0,Calm,Calm,-,N/A,,Mostly Cloudy,0,2012-12-22 12:53:00
6:53 AM,18.0,12.0,78,30.11,10.0,West,3.5,-,N/A,,Overcast,280,2012-12-22 13:53:00
7:53 AM,17.1,10.9,77,30.11,10.0,Calm,Calm,-,N/A,,Scattered Clouds,0,2012-12-22 14:53:00
8:53 AM,18.0,12.0,78,30.10,10.0,Calm,Calm,-,N/A,,Mostly Cloudy,0,2012-12-22 15:53:00
9:53 AM,19.9,12.9,74,30.09,9.0,Calm,Calm,-,N/A,,Clear,0,2012-12-22 16:53:00
10:53 AM,19.9,12.9,74,30.07,8.0,Calm,Calm,-,N/A,,Clear,0,2012-12-22 17:53:00
11:53 AM,21.0,12.9,71,30.04,8.0,Calm,Calm,-,N/A,,Mostly Cloudy,0,2012-12-22 18:53:00
12:53 PM,21.0,12.9,71,30.01,8.0,Calm,Calm,-,N/A,,Overcast,0,2012-12-22 19:53:00
1:53 PM,21.9,12.9,68,29.98,8.0,Calm,Calm,-,N/A,,Clear,0,2012-12-22 20:53:00
2:53 PM,21.9,14.0,72,29.98,8.0,Calm,Calm,-,N/A,,Mostly Cloudy,0,2012-12-22 21:53:00
3:53 PM,23.0,14.0,68,29.95,9.0,Calm,Calm,-,N/A,,Scattered Clouds,0,2012-12-22 22:53:00
4:53 PM,21.0,12.9,71,29.96,10.0,NW,8.1,-,N/A,,Overcast,310,2012-12-22 23:53:00
5:53 PM,19.9,12.0,71,29.97,10.0,North,8.1,-,N/A,,Overcast,350,2012-12-23 00:53:00
6:53 PM,18.0,10.9,74,29.99,10.0,NW,4.6,-,N/A,,Overcast,310,2012-12-23 01:53:00
7:53 PM,18.0,10.9,74,29.98,10.0,Calm,Calm,-,N/A,,Scattered Clouds,0,2012-12-23 02:53:00
8:53 PM,16.0,9.0,74,29.99,9.0,NW,5.8,-,N/A,,Mostly Cloudy,320,2012-12-23 03:53:00
9:53 PM,16.0,9.0,74,29.99,10.0,WNW,4.6,-,N/A,,Mostly Cloudy,300,2012-12-23 04:53:00
10:53 PM,16.0,8.1,71,30.02,10.0,West,8.1,-,N/A,,Overcast,280,2012-12-23 05:53:00
11:53 PM,15.1,8.1,74,30.01,10.0,Calm,Calm,-,N/A,,Partly Cloudy,0,2012-12-23 06:53:00